Aérodrome :
LOGIN :

S'inscrire | Disclaimer

   EN    FR    IT 

 










Légende :    VFR   VFR Marginal   IFR   IFR Intensif   IFR Très Intensif
Visi : 
Plafond : 
>= 8 km
>= 3000ft
5 à 8 km
1000 à 3000 ft
1500m à 5 km
500 à 1000 ft
800 à 1500m
200 à 500 ft
< 800m
< 200 ft
Symboles :   Orages  Brouillard  Fortes neiges  Fortes précipitations  Vent > 20 kt
SIGMETs :   Divers  Orages  Givrage  Turbulence  Onde Orograph.  Cendres Volcan.







- Altitude de l'aérodrome : 121 ft
- Code IATA : HUY
- Voir les cartes d'approche


EGNJ - Humberside

DERNIER METAR :
  • 172120Z 19009KT CAVOK 03/02 Q1021

METARs EXPIRÉS :
  • 172050Z 19009KT CAVOK 03/02 Q1021
  • 172020Z 18008KT CAVOK 02/02 Q1021

TAF TAF EGNJ
Valide du 17 à 21h jusqu'au 18 à 06h UTC


171953Z 1721/1806 18005KT 9999 FEW015
PROB40 1721/1724 7000
BECMG 1800/1803 3000 BR
PROB40 1802/1806 0500 FG VV///
ATIS : +44 1652 682 020
Pas de NOTAMs connus pour ce terrain.



MET'MAP, la Météo Aéronautique d'un coup d'oeil ! - Copyright ORBIFLY Décembre 2007 - Disclaimer

ORBIFLY MET'MAP TEAM :

Programmation & Développement : Alexandra Zaïnal
Conception & Développement : Baudouin d'Aumeries
Co-Programmation & Développement : Marc-Olivier Méhu
Soutien technique & logistique : Manuel Goepfert

Contact : metmap@orbifly.com




SOURCES & CREDITS :

   NOAA